[[{"header":{"parameterUnit":"m.s-1","parameterCategory":1,"la1":30.2991,"la2":30.254,"lo1":-89.0895,"lo2":-89.0444,"dy":0.0017,"dx":0.0017,"nx":28,"ny":28,"refTime":"2024-10-20T03:00:00:Z","depth":0,"parameterNumber":2,"parameterNumberName":"U-component_of_WINDS"},"data":[0,0,0,0,0,0,0,0,0,0,0,0,0,0,0,0,0,0,0,0,0,0,0,0,0,0,0,0,0,0,0,0,0,0,0,0,0,0,0,0,0,0,0,0,0,0,0,0,0,0,0,0,0,0,0,0,0,0,-0.7858,-0.7858,0,-0.7841,-0.784,-0.784,-0.779,-0.7789,-0.7788,-0.7787,-0.7771,-0.7772,-0.7773,0,0,0,0,0,0,0,0,0,0,0,0,0,-0.7849,-0.785,-0.7858,-0.7858,-0.7857,-0.7841,-0.784,-0.784,-0.779,-0.7789,-0.7788,-0.7786,-0.7771,-0.7772,-0.7773,0,0,0,0,0,0,0,0,0,0,0,0,0,-0.7845,-0.785,-0.7858,-0.783,-0.7828,-0.7841,-0.784,-0.784,-0.7791,-0.7789,-0.7787,-0.7786,-0.7771,-0.7772,-0.7773,-0.7811,0,0,-0.7776,-0.7776,0,0,0,0,0,0,0,0,-0.7845,-0.7845,-0.7835,-0.7832,-0.7829,-0.7816,-0.7832,-0.7831,-0.7791,-0.7805,-0.7787,-0.7785,-0.7788,-0.7787,-0.7788,-0.7811,-0.781,-0.7776,-0.7776,-0.7777,-0.7777,0,0,0,0,0,0,0,-0.7846,-0.7846,-0.7851,-0.7835,-0.7831,-0.782,-0.7817,-0.7831,-0.7806,-0.7804,-0.78,-0.7798,-0.7786,-0.7787,-0.7787,-0.781,-0.7776,-0.7776,-0.7777,-0.7777,-0.7866,-0.7867,0,0,0,0,0,0,-0.7849,-0.7846,-0.7852,-0.785,-0.7833,-0.7821,-0.7818,-0.7822,-0.7805,-0.7801,-0.78,-0.7796,-0.7786,-0.7786,-0.7786,-0.7832,-0.7777,-0.7777,-0.7778,-0.7864,-0.7866,-0.7868,0,0,0,0,0,0,-0.7849,-0.785,-0.7852,-0.7847,-0.7847,-0.7823,-0.7827,-0.7822,-0.7823,-0.7803,-0.7798,-0.7805,-0.7785,-0.7785,-0.7806,-0.7831,-0.7778,-0.7779,-0.7862,-0.7865,-0.7867,-0.7924,0,0,0,0,0,0,-0.7849,-0.7851,-0.7865,-0.7848,-0.7847,-0.7872,-0.7829,-0.7823,-0.7825,-0.782,-0.7807,-0.7803,-0.7783,-0.7805,-0.7807,-0.7831,-0.7779,-0.7859,-0.7863,-0.7866,-0.792,-0.7928,-0.7936,0,0,0,0,0,-0.7849,-0.7882,-0.7866,-0.7867,-0.7864,-0.7873,-0.7873,-0.7849,-0.7827,-0.7841,-0.7828,-0.7803,-0.7827,-0.7807,-0.7809,-0.7834,-0.7858,-0.7862,-0.7866,-0.7916,-0.7927,-0.7935,0,0,0,0,0,0,-0.7903,-0.7879,-0.7861,-0.7889,-0.7883,-0.7865,-0.7883,-0.7861,-0.7862,-0.7858,-0.7829,-0.7826,-0.7852,-0.7844,-0.7823,-0.7872,-0.7838,-0.7843,-0.7876,-0.7886,-0.7894,-0.7896,-0.778,0,0,0,0,0,-0.7917,-0.7926,-0.7905,-0.7931,-0.793,-0.7907,-0.791,-0.7892,-0.7886,-0.7883,-0.7872,-0.7867,-0.7874,-0.7879,-0.7883,-0.7917,-0.7915,-0.7936,-0.7943,-0.795,-0.7956,-0.7975,-0.7985,-0.7881,-0.7881,-0.7881,0,0,-0.7948,-0.7936,-0.7944,-0.7942,-0.7936,-0.7947,-0.7905,-0.7918,-0.7927,-0.7885,-0.7905,-0.7896,-0.7889,-0.7918,-0.7929,-0.7912,-0.7983,-0.7955,-0.7961,-0.7962,-0.798,-0.799,-0.7999,-0.7884,-0.7883,-0.7883,0,0,-0.8011,-0.8002,-0.8024,-0.8019,-0.801,-0.7994,-0.7999,-0.7984,-0.7977,-0.7995,-0.7966,-0.7975,-0.7986,-0.7983,-0.7983,-0.8045,-0.8023,-0.8047,-0.8089,-0.8109,-0.8117,-0.8124,-0.8149,-0.8158,-0.8051,-0.8051,-0.8052,0,-0.8052,-0.8067,-0.8038,-0.8054,-0.8055,-0.8017,-0.804,-0.8036,-0.8029,-0.8031,-0.8011,-0.8026,-0.8018,-0.8046,-0.8062,-0.8061,-0.8068,-0.805,-0.8118,-0.8125,-0.8131,-0.8155,-0.8164,-0.8055,-0.8054,-0.8054,-0.8054,0,-0.8118,-0.8129,-0.8147,-0.8142,-0.8144,-0.8163,-0.8139,-0.8145,-0.8127,-0.8113,-0.8134,-0.8123,-0.8126,-0.8131,-0.8113,-0.8157,-0.8147,-0.8123,-0.809,-0.8145,-0.8167,-0.8175,-0.8059,-0.8058,-0.8057,-0.8056,0,0,-0.8217,-0.8194,-0.8202,-0.82,-0.8187,-0.8195,-0.8212,-0.8215,-0.8222,-0.8218,-0.8233,-0.8244,-0.8222,-0.8221,-0.8203,-0.8219,-0.8272,-0.8193,-0.8193,-0.8211,-0.8323,-0.8344,-0.8355,-0.8256,-0.8258,-0.8259,-0.8325,0,-0.8279,-0.8308,-0.8283,-0.8317,-0.8328,-0.8291,-0.8307,-0.8301,-0.8289,-0.8297,-0.8283,-0.8292,-0.8261,-0.8261,-0.8275,-0.8263,-0.8295,-0.8257,-0.8273,-0.8274,-0.828,-0.8366,-0.8388,-0.8451,-0.8333,-0.8334,-0.8335,0,-0.8356,-0.8356,-0.8391,-0.8377,-0.838,-0.8395,-0.8396,-0.8402,-0.8395,-0.8385,-0.8385,-0.8362,-0.8379,-0.8344,-0.8369,-0.8344,-0.8348,-0.8343,-0.8345,-0.8349,-0.8311,-0.8375,-0.847,-0.8481,-0.8348,-0.8347,-0.8346,0,-0.8429,-0.8436,-0.8459,-0.8458,-0.8441,-0.8452,-0.8446,-0.8437,-0.844,-0.844,-0.8443,-0.8445,-0.8447,-0.845,-0.8429,-0.8404,-0.8457,-0.842,-0.8452,-0.8453,-0.8468,-0.8468,-0.8569,-0.8465,-0.8464,-0.8464,-0.8464,0,-0.8503,-0.8527,-0.8492,-0.8507,-0.8532,-0.8503,-0.853,-0.8519,-0.8512,-0.8525,-0.8492,-0.8505,-0.8474,-0.8483,-0.8466,-0.8491,-0.8492,-0.8486,-0.8482,-0.8491,-0.8492,-0.8496,-0.8493,-0.8467,-0.8466,-0.8466,-0.8465,0,-0.859,-0.8567,-0.859,-0.8571,-0.8567,-0.8588,-0.8572,-0.8586,-0.857,-0.8587,-0.8589,-0.8566,-0.8576,-0.8554,-0.856,-0.8549,-0.8585,-0.8572,-0.8588,-0.8586,-0.862,-0.8619,-0.873,-0.8745,-0.8628,-0.8629,-0.863,0,-0.8641,-0.8658,-0.8642,-0.8647,-0.8643,-0.8652,-0.8655,-0.8627,-0.8632,-0.8625,-0.864,-0.8646,-0.8651,-0.8669,-0.8653,-0.8659,-0.8648,-0.8686,-0.8649,-0.8658,-0.8653,-0.8653,-0.8656,-0.8695,-0.8697,-0.8698,-0.8699,0,-0.8735,-0.8722,-0.8728,-0.873,-0.8734,-0.8734,-0.8732,-0.8739,-0.8708,-0.8716,-0.8725,-0.8728,-0.8735,-0.8744,-0.8745,-0.8739,-0.8716,-0.871,-0.8719,-0.873,-0.874,-0.8739,-0.8613,-0.8709,-0.8708,-0.8707,-0.8706,-0.8706,-0.8807,-0.8822,-0.8813,-0.882,-0.8815,-0.8814,-0.8826,-0.8812,-0.882,-0.8823,-0.8805,-0.8819,-0.8812,-0.8812,-0.8808,-0.882,-0.8803,-0.8814,-0.8818,-0.8822,-0.8829,-0.8735,-0.882,-0.8819,-0.8819,-0.8819,-0.8818,0,-0.8902,-0.8894,-0.8901,-0.8899,-0.8906,-0.888,-0.8876,-0.8884,-0.8896,-0.8891,-0.8896,-0.8908,-0.8916,-0.89,-0.8906,-0.8918,-0.8908,-0.8921,-0.8922,-0.8922,-0.8842,-0.8836,-0.893,-0.893,-0.893,-0.893,-0.893,-0.893,-0.8953,-0.8977,-0.8964,-0.8986,-0.8978,-0.8991,-0.8991,-0.8991,-0.8987,-0.9001,-0.9008,-0.8997,-0.8988,-0.8993,-0.9,-0.8995,-0.9,-0.9019,-0.9011,-0.8938,-0.8927,-0.8917,-0.8911,-0.9019,-0.9019,-0.9089,-0.909,-0.9091]},{"header":{"parameterUnit":"m.s-1","parameterCategory":1,"la1":30.2991,"la2":30.254,"lo1":-89.0895,"lo2":-89.0444,"dy":0.0017,"dx":0.0017,"nx":28,"ny":28,"refTime":"2024-10-20T03:00:00:Z","depth":0,"parameterNumber":3,"parameterNumberName":"V-component_of_WINDS"},"data":[0,0,0,0,0,0,0,0,0,0,0,0,0,0,0,0,0,0,0,0,0,0,0,0,0,0,0,0,0,0,0,0,0,0,0,0,0,0,0,0,0,0,0,0,0,0,0,0,0,0,0,0,0,0,0,0,0,0,0.4983,0.4982,0,0.4871,0.487,0.4869,0.4811,0.4811,0.4811,0.4811,0.4692,0.4689,0.4685,0,0,0,0,0,0,0,0,0,0,0,0,0,0.5142,0.5139,0.4983,0.4981,0.498,0.4871,0.487,0.4868,0.4811,0.4811,0.4811,0.4811,0.4693,0.4689,0.4685,0,0,0,0,0,0,0,0,0,0,0,0,0,0.5056,0.5138,0.4983,0.4939,0.4934,0.4872,0.487,0.4868,0.4811,0.4811,0.4811,0.4811,0.4694,0.4689,0.4685,0.4657,0,0,0.467,0.4668,0,0,0,0,0,0,0,0,0.5061,0.505,0.4947,0.4942,0.4936,0.4855,0.4882,0.4797,0.4811,0.4857,0.4811,0.4811,0.4746,0.4737,0.4716,0.4651,0.4646,0.467,0.4667,0.4665,0.4664,0,0,0,0,0,0,0,0.5067,0.5054,0.4938,0.4945,0.4938,0.4923,0.491,0.4866,0.4803,0.4853,0.4849,0.4837,0.4743,0.4721,0.4713,0.4645,0.467,0.4666,0.4663,0.4661,0.455,0.455,0,0,0,0,0,0,0.5081,0.506,0.4942,0.4935,0.5,0.492,0.4906,0.4881,0.4804,0.4792,0.4837,0.4835,0.4729,0.4718,0.4708,0.467,0.4665,0.4661,0.4658,0.455,0.455,0.455,0,0,0,0,0,0,0.5084,0.5071,0.4946,0.4996,0.4979,0.4917,0.4889,0.4879,0.4857,0.4791,0.4779,0.4826,0.4728,0.4715,0.467,0.4665,0.4659,0.4654,0.4551,0.455,0.455,0.4593,0,0,0,0,0,0,0.5089,0.5072,0.5062,0.4996,0.4977,0.4912,0.4889,0.4877,0.4849,0.4845,0.4778,0.4767,0.4727,0.4678,0.4666,0.4658,0.4651,0.4551,0.455,0.455,0.4592,0.4595,0.4597,0,0,0,0,0,0.5095,0.5078,0.5062,0.5048,0.4963,0.4912,0.4901,0.4857,0.4849,0.4838,0.4795,0.4769,0.4668,0.4674,0.4659,0.4651,0.4551,0.4551,0.455,0.4591,0.4594,0.4597,0,0,0,0,0,0,0.5143,0.5069,0.505,0.5012,0.4969,0.4903,0.4887,0.4862,0.4819,0.4816,0.4762,0.4748,0.4708,0.4675,0.4683,0.4619,0.4606,0.4603,0.4642,0.4645,0.4647,0.4655,0.4647,0,0,0,0,0,0.515,0.5116,0.5052,0.5024,0.5004,0.4949,0.4925,0.4895,0.4848,0.4829,0.4784,0.4737,0.4695,0.4668,0.4625,0.4587,0.4571,0.4574,0.4577,0.4579,0.4577,0.4553,0.4553,0.4549,0.4549,0.4549,0,0,0.5162,0.5117,0.5099,0.5033,0.4996,0.4961,0.4934,0.4898,0.487,0.4823,0.4778,0.4744,0.4688,0.4646,0.4626,0.4617,0.4574,0.4579,0.4581,0.4577,0.4552,0.4553,0.4553,0.4549,0.4549,0.4549,0,0,0.5167,0.513,0.5103,0.5067,0.5012,0.4976,0.4969,0.4906,0.4882,0.4837,0.48,0.4766,0.4694,0.4656,0.4627,0.4618,0.4591,0.4605,0.4617,0.4595,0.4595,0.4595,0.459,0.4589,0.4603,0.4603,0.4603,0,0.5189,0.5136,0.5091,0.5057,0.5029,0.4986,0.4956,0.4923,0.4856,0.4837,0.4829,0.4738,0.4698,0.4646,0.4644,0.4623,0.4612,0.4612,0.4599,0.4598,0.4597,0.4592,0.4591,0.4605,0.4605,0.4605,0.4605,0,0.5165,0.5128,0.5112,0.5051,0.502,0.4989,0.4938,0.4913,0.4886,0.485,0.4803,0.4754,0.47,0.4686,0.4658,0.463,0.4626,0.4609,0.4595,0.4601,0.4595,0.4593,0.4608,0.4607,0.4607,0.4606,0,0,0.5196,0.5111,0.5106,0.5077,0.5013,0.4983,0.4949,0.4899,0.4877,0.4832,0.4801,0.4742,0.4726,0.4693,0.4661,0.4641,0.4635,0.4626,0.4624,0.4629,0.46,0.4612,0.4611,0.4618,0.4617,0.4617,0.4604,0,0.5191,0.513,0.5089,0.5043,0.5008,0.4966,0.4936,0.4893,0.4859,0.4822,0.4784,0.4742,0.4725,0.4705,0.4684,0.4641,0.4629,0.4641,0.4586,0.4585,0.4601,0.4608,0.4621,0.4611,0.4601,0.4601,0.4601,0,0.5177,0.5135,0.5086,0.5026,0.5009,0.4983,0.4933,0.49,0.4849,0.4825,0.4789,0.4757,0.4717,0.4708,0.4651,0.4661,0.4636,0.4612,0.461,0.4602,0.4593,0.4599,0.4607,0.4605,0.4597,0.4597,0.4598,0,0.5203,0.5134,0.5096,0.5073,0.5002,0.4984,0.4954,0.4904,0.4875,0.4831,0.4812,0.4763,0.4736,0.4698,0.4652,0.4649,0.46,0.4587,0.4578,0.4579,0.4568,0.4569,0.4571,0.4554,0.4554,0.4554,0.4554,0,0.5201,0.5172,0.5107,0.5083,0.505,0.5002,0.497,0.4935,0.4891,0.4858,0.4819,0.4789,0.4732,0.4694,0.4658,0.4616,0.4604,0.4583,0.4573,0.4586,0.4588,0.4568,0.4567,0.4554,0.4554,0.4554,0.4554,0,0.5224,0.518,0.5135,0.5072,0.5056,0.5033,0.4978,0.4953,0.4917,0.4876,0.4864,0.4806,0.476,0.4711,0.4648,0.4624,0.4583,0.457,0.4601,0.4595,0.4589,0.459,0.4576,0.4572,0.4559,0.456,0.456,0,0.5226,0.5203,0.5138,0.5114,0.5085,0.5047,0.5018,0.4971,0.4942,0.4883,0.4864,0.4816,0.4774,0.4702,0.4653,0.4604,0.4589,0.4588,0.4582,0.4595,0.4588,0.459,0.4587,0.459,0.4591,0.4591,0.4591,0,0.5232,0.5211,0.5172,0.5126,0.5093,0.5054,0.5012,0.4995,0.4938,0.4908,0.4862,0.4829,0.4766,0.4717,0.4662,0.4629,0.46,0.4594,0.4589,0.4601,0.4619,0.4608,0.4606,0.4594,0.4594,0.4594,0.4593,0.4593,0.5243,0.5221,0.5172,0.5129,0.5094,0.5056,0.5029,0.499,0.4951,0.4896,0.487,0.4823,0.4772,0.4696,0.4663,0.4624,0.4616,0.4609,0.4607,0.4606,0.4609,0.4626,0.4614,0.4614,0.4614,0.4614,0.4614,0,0.5247,0.5213,0.5175,0.5119,0.5086,0.5064,0.5017,0.499,0.495,0.4906,0.4866,0.4812,0.4764,0.4713,0.4662,0.4641,0.4626,0.4629,0.4629,0.4622,0.462,0.4629,0.4641,0.4641,0.4641,0.4641,0.4641,0.4641,0.5244,0.5205,0.5178,0.5121,0.5086,0.5042,0.5017,0.4981,0.4946,0.4888,0.4849,0.4816,0.4768,0.4713,0.4669,0.4654,0.4637,0.4643,0.4625,0.4624,0.4622,0.462,0.4628,0.464,0.464,0.463,0.463,0.463]}]]